This is the latest recevied weather packets stored in our database for station/object K6GMW. If no packets are shown the sender has not sent any weather packets the latest 10 day(s).
| Time | Temp. | Humidity | Pressure | Rain* | Wind** | Luminosity | Snow |
|---|---|---|---|---|---|---|---|
| 1778085879 | 14.44° C | 91% | 1016 hPa | 0 mm | - | 182 W/m² | - |
| 1778085577 | 14.44° C | 90% | 1016.1 hPa | 0 mm | - | 115 W/m² | - |
| 1778085271 | 15° C | 90% | 1016 hPa | 0 mm | - | 136 W/m² | - |
| 1778084967 | 15° C | 90% | 1016.1 hPa | 0 mm | - | 101 W/m² | - |
| 1778084665 | 15° C | 89% | 1016 hPa | 0 mm | - | 91 W/m² | - |
| 1778084362 | 15° C | 90% | 1015.7 hPa | 0 mm | - | 114 W/m² | - |
| 1778084060 | 15° C | 89% | 1015.6 hPa | 0 mm | - | 70 W/m² | - |
| 1778083757 | 15° C | 89% | 1015.5 hPa | 0 mm | - | 70 W/m² | - |
| 1778083454 | 15° C | 89% | 1015.2 hPa | 0 mm | - | 73 W/m² | - |
| 1778083152 | 15° C | 89% | 1015 hPa | 0 mm | - | 78 W/m² | - |
| 1778082849 | 15° C | 88% | 1015 hPa | 0 mm | - | 108 W/m² | - |
| 1778081731 | 15° C | 87% | 1014.3 hPa | 0 mm | - | 137 W/m² | - |
| 1778081428 | 15° C | 87% | 1014.4 hPa | 0 mm | - | 117 W/m² | - |
| 1778081125 | 15° C | 86% | 1014.5 hPa | 0 mm | - | 125 W/m² | - |
| 1778080823 | 15° C | 86% | 1014.4 hPa | 0 mm | - | 130 W/m² | - |
| 1778080520 | 15.56° C | 85% | 1014.4 hPa | 0 mm | - | 164 W/m² | - |
| 1778080218 | 15.56° C | 85% | 1014.5 hPa | 0 mm | - | 174 W/m² | - |
| 1778079914 | 15.56° C | 85% | 1014.4 hPa | 0 mm | - | 214 W/m² | - |
| 1778079611 | 15° C | 86% | 1014.2 hPa | 0 mm | - | 197 W/m² | - |
| 1778079307 | 15° C | 85% | 1014 hPa | 0 mm | - | 164 W/m² | - |
| 1778079005 | 15° C | 85% | 1013.8 hPa | 0 mm | - | 157 W/m² | - |
| 1778078702 | 15° C | 85% | 1013.9 hPa | 0 mm | - | 139 W/m² | - |
| 1778078399 | 15° C | 84% | 1014 hPa | 0 mm | - | 103 W/m² | - |
| 1778078096 | 15° C | 83% | 1014 hPa | 0 mm | - | 133 W/m² | - |
| 1778077795 | 15.56° C | 83% | 1013.9 hPa | 0 mm | - | 151 W/m² | - |
* Rain latest hour (hover to see other rain measurements)
** Current wind speed in m/s (hover to see current wind gust speed)